Voltar ao catálogo

FENGYUN 1C DEB

LostSSO
NORAD 32139·DEBRIS·🇨🇳 China

Lançado May 10, 1999 de Taiyuan Satellite Launch Center

Loading…

Próximas Passagens (próximas 24 horas)

TLE

ObsoletoSource: Space-Track

Época: Apr 26, 2024, 10:25 UTC

1 32139U 99025CSH 24117.43470839  .00010471  00000-0  25916-2 0  9994
2 32139  98.4216 178.7744 0189742 351.0887   8.6951 14.41815002564539

Acompanhe FENGYUN 1C DEB em tempo real com AllMySat

Download on the App Store